Date String (YYYY-MM-DD hh:mm:ss) UTC,Instrument flags,absolute air pressure of the measurement (hPa),sample flow rate (lpm),inlet stack bypass flow (lpm),air temperature of the measurement (°C),ambient temperature measured by the external sensor (°C),aerosol sample conditioner tube jacket temperature (°C),OPC LED temperature (°C),internal box temperature (°C),relative humidity of the measurement (%),span deviation,mass concentration of particles derived from Lorenz-Mie calculation of OPC scattering (μg/m³),mass concentration of particles derived from Lorenz-Mie calculation of OPC scattering (μg/m³),mass concentration of particles derived from Lorenz-Mie calculation of OPC scattering (μg/m³)
DateTimeUTC,F1_M11,P_M11,Q1_M11,Q2_M11,T1_M11,T2_M11,T3_M11,T4_M11,T5_M11,U1_M11,ZSPAN_M11,X0_M11,X2_M11,X1_M11
2023-07-31 04:00:00,SystemResetWarning,0834.3,4.99,000.00,028.7,026.0,000.0,037.0,030.2,30.2,0000.0,0013.30,0005.06,0004.25
2023-07-31 04:01:00,SystemResetWarning,0834.4,5.00,000.00,028.7,026.4,000.0,037.0,030.3,30.3,0000.0,0013.49,0005.13,0004.29
2023-07-31 04:02:00,SystemResetWarning,0834.5,5.00,000.00,028.7,026.8,000.0,037.1,030.4,30.2,0000.0,0012.65,0005.17,0004.31
2023-07-31 04:03:00,SystemResetWarning,0834.4,5.01,000.00,028.8,027.1,000.0,037.1,030.4,30.2,0000.0,0012.38,0005.16,0004.33
2023-07-31 04:04:00,SystemResetWarning,0834.5,4.99,000.00,028.8,027.4,000.0,037.1,030.5,30.2,0000.0,0011.24,0005.18,0004.33
2023-07-31 04:05:00,SystemResetWarning,0834.5,4.99,000.00,028.9,027.6,000.0,037.2,030.6,30.6,0000.0,0010.49,0005.20,0004.34
2023-07-31 04:06:00,SystemResetWarning,0834.3,5.00,000.00,028.9,027.4,000.0,037.2,030.7,30.5,0000.0,0010.48,0005.23,0004.36
2023-07-31 04:07:00,SystemResetWarning,0834.2,5.00,000.00,028.9,025.9,000.0,037.1,030.4,30.8,0000.0,0010.66,0005.27,0004.37
2023-07-31 04:08:00,SystemResetWarning,0834.1,5.00,000.00,028.8,024.7,000.0,037.0,030.2,31.3,0000.0,0010.76,0005.30,0004.38
2023-07-31 04:09:00,SystemResetWarning,0834.1,5.02,000.00,028.7,024.7,000.0,036.9,030.0,32.1,0000.0,0010.70,0005.29,0004.37
2023-07-31 04:10:00,SystemResetWarning,0834.1,5.00,000.00,028.6,025.0,000.0,037.0,029.9,32.4,0000.0,0010.60,0005.34,0004.38
2023-07-31 04:11:00,SystemResetWarning,0834.0,5.00,000.00,028.6,025.5,000.0,037.0,030.0,31.6,0000.0,0010.09,0005.33,0004.40
2023-07-31 04:12:00,SystemResetWarning,0834.0,5.00,000.00,028.6,025.9,000.0,037.0,030.1,29.1,0000.0,0010.20,0005.28,0004.40
2023-07-31 04:13:00,SystemResetWarning,0834.0,5.00,000.00,028.6,026.4,000.0,037.0,030.2,29.9,0000.0,0010.57,0005.27,0004.41
2023-07-31 04:14:00,SystemResetWarning,0834.0,5.01,000.00,028.7,026.8,000.0,037.0,030.3,29.7,0000.0,0010.97,0005.27,0004.41
2023-07-31 04:15:00,SystemResetWarning,0834.0,4.99,000.00,028.7,027.1,000.0,037.1,030.4,26.5,0000.0,0011.24,0005.27,0004.42
2023-07-31 04:16:00,SystemResetWarning,0833.9,4.99,000.00,028.7,027.3,000.0,037.1,030.5,28.1,0000.0,0011.22,0005.24,0004.41
2023-07-31 04:17:00,SystemResetWarning,0833.9,5.00,000.00,028.8,027.6,000.0,037.1,030.6,25.9,0000.0,0011.50,0005.21,0004.40
2023-07-31 04:18:00,SystemResetWarning,0833.8,5.01,000.00,028.9,027.8,000.0,037.1,030.6,24.9,0000.0,0011.60,0005.16,0004.41
2023-07-31 04:19:00,SystemResetWarning,0833.8,4.99,000.00,028.9,027.3,000.0,037.1,030.6,26.8,0000.0,0011.75,0005.16,0004.41
2023-07-31 04:20:00,SystemResetWarning,0833.8,5.00,000.00,028.9,025.6,000.0,037.0,030.3,27.9,0000.0,0012.02,0005.20,0004.44
2023-07-31 04:21:00,SystemResetWarning,0833.8,5.00,000.00,028.8,024.8,000.0,036.9,030.2,27.8,0000.0,0012.03,0005.19,0004.43
2023-07-31 04:22:00,SystemResetWarning,0833.8,5.01,000.00,028.7,024.8,000.0,036.9,030.0,26.7,0000.0,0011.91,0005.15,0004.40
2023-07-31 04:23:00,SystemResetWarning,0833.8,5.02,000.00,028.6,025.2,000.0,037.0,030.0,26.5,0000.0,0011.86,0005.18,0004.38
2023-07-31 04:24:00,SystemResetWarning,0833.8,4.99,000.00,028.6,025.6,000.0,037.0,030.1,26.8,0000.0,0012.32,0005.19,0004.38
2023-07-31 04:25:00,SystemResetWarning,0833.7,5.00,000.00,028.6,026.1,000.0,037.0,030.2,26.1,0000.0,0011.81,0005.18,0004.38
2023-07-31 04:26:00,SystemResetWarning,0833.7,5.00,000.00,028.6,026.5,000.0,037.0,030.3,25.3,0000.0,0011.73,0005.20,0004.38
2023-07-31 04:27:00,SystemResetWarning,0833.7,5.01,000.00,028.7,026.9,000.0,037.0,030.3,24.9,0000.0,0012.58,0005.22,0004.38
2023-07-31 04:28:00,SystemResetWarning,0833.7,5.00,000.00,028.7,027.2,000.0,037.1,030.4,25.6,0000.0,0012.62,0005.30,0004.41
2023-07-31 04:29:00,SystemResetWarning,0833.6,4.99,000.00,028.8,027.4,000.0,037.1,030.5,26.4,0000.0,0012.77,0005.31,0004.43
2023-07-31 04:30:00,SystemResetWarning,0833.7,4.99,000.00,028.8,027.7,000.0,037.1,030.6,28.3,0000.0,0012.62,0005.26,0004.43
2023-07-31 04:31:00,SystemResetWarning,0833.7,5.00,000.00,028.9,027.8,000.0,037.1,030.7,28.6,0000.0,0012.14,0005.15,0004.38
2023-07-31 04:32:00,SystemResetWarning,0833.6,4.99,000.00,028.9,027.1,000.0,037.1,030.6,28.5,0000.0,0012.15,0005.13,0004.37
2023-07-31 04:33:00,SystemResetWarning,0833.6,5.00,000.00,028.9,025.3,000.0,037.0,030.4,28.8,0000.0,0012.29,0005.11,0004.36
2023-07-31 04:34:00,SystemResetWarning,0833.6,5.00,000.00,028.8,024.6,000.0,036.9,030.1,29.5,0000.0,0012.11,0005.02,0004.30
2023-07-31 04:35:00,SystemResetWarning,0833.4,5.01,000.00,028.7,024.7,000.0,036.9,029.9,30.8,0000.0,0011.19,0004.96,0004.25
2023-07-31 04:36:00,SystemResetWarning,0833.4,5.00,000.00,028.6,025.2,000.0,037.0,029.9,31.9,0000.0,0010.91,0004.88,0004.17
2023-07-31 04:37:00,SystemResetWarning,0833.5,5.00,000.00,028.6,025.7,000.0,037.0,030.1,32.2,0000.0,0010.31,0004.73,0004.07
2023-07-31 04:38:00,SystemResetWarning,0833.5,5.00,000.00,028.6,026.1,000.0,037.0,030.2,32.5,0000.0,0009.29,0004.60,0003.99
2023-07-31 04:39:00,SystemResetWarning,0833.4,5.00,000.00,028.6,026.5,000.0,037.1,030.3,32.9,0000.0,0008.67,0004.46,0003.92
2023-07-31 04:40:00,SystemResetWarning,0833.5,5.01,000.00,028.7,026.9,000.0,037.1,030.3,33.0,0000.0,0008.33,0004.40,0003.84
2023-07-31 04:41:00,SystemResetWarning,0833.4,4.99,000.00,028.7,027.2,000.0,037.1,030.4,32.9,0000.0,0008.06,0004.36,0003.75
2023-07-31 04:42:00,SystemResetWarning,0833.4,4.99,000.00,028.8,027.4,000.0,037.1,030.5,32.9,0000.0,0008.82,0004.31,0003.70
2023-07-31 04:43:00,SystemResetWarning,0833.4,4.99,000.00,028.8,027.6,000.0,037.1,030.6,32.8,0000.0,0008.82,0004.23,0003.65
2023-07-31 04:44:00,SystemResetWarning,0833.4,5.00,000.00,028.9,027.8,000.0,037.2,030.6,32.7,0000.0,0008.35,0004.10,0003.58
2023-07-31 04:45:00,SystemResetWarning,0833.4,5.00,000.00,028.9,027.5,000.0,037.1,030.7,32.6,0000.0,0008.31,0004.05,0003.54
2023-07-31 04:46:00,SystemResetWarning,0833.4,5.00,000.00,028.9,026.1,000.0,037.1,030.4,32.6,0000.0,0008.44,0003.95,0003.49
2023-07-31 04:47:00,SystemResetWarning,0833.3,5.00,000.00,028.8,025.5,000.0,037.0,030.3,32.7,0000.0,0008.62,0003.92,0003.48
2023-07-31 04:48:00,SystemResetWarning,0833.3,5.01,000.00,028.8,025.7,000.0,037.0,030.2,32.9,0000.0,0008.68,0003.93,0003.51
2023-07-31 04:49:00,SystemResetWarning,0833.3,4.99,000.00,028.7,026.0,000.0,037.1,030.2,32.9,0000.0,0008.67,0003.94,0003.53
2023-07-31 04:50:00,SystemResetWarning,0833.3,4.99,000.00,028.7,026.4,000.0,037.1,030.3,32.9,0000.0,0008.87,0004.00,0003.56
2023-07-31 04:51:00,SystemResetWarning,0833.3,5.00,000.00,028.8,026.8,000.0,037.1,030.4,32.8,0000.0,0008.77,0004.02,0003.58
2023-07-31 04:52:00,SystemResetWarning,0833.4,5.00,000.00,028.8,027.1,000.0,037.2,030.5,32.8,0000.0,0008.66,0004.02,0003.61
2023-07-31 04:53:00,SystemResetWarning,0833.4,5.01,000.00,028.9,027.4,000.0,037.2,030.6,32.9,0000.0,0008.87,0004.08,0003.67
2023-07-31 04:54:00,SystemResetWarning,0833.4,5.00,000.00,028.9,027.6,000.0,037.2,030.6,32.7,0000.0,0008.74,0004.22,0003.74
2023-07-31 04:55:00,SystemResetWarning,0833.4,4.99,000.00,029.0,027.8,000.0,037.2,030.7,32.6,0000.0,0008.96,0004.36,0003.83
2023-07-31 04:56:00,SystemResetWarning,0833.4,4.99,000.00,029.0,027.0,000.0,037.2,030.6,32.3,0000.0,0009.64,0004.49,0003.93
2023-07-31 04:57:00,SystemResetWarning,0833.4,5.00,000.00,028.9,025.7,000.0,037.1,030.4,32.1,0000.0,0009.80,0004.65,0004.05
2023-07-31 04:58:00,SystemResetWarning,0833.4,5.01,000.00,028.9,025.5,000.0,037.0,030.3,32.2,0000.0,0010.14,0004.82,0004.18
2023-07-31 04:59:00,SystemResetWarning,0833.4,5.01,000.00,028.8,025.8,000.0,037.1,030.2,32.2,0000.0,0011.04,0004.95,0004.27
